When you browse on this site, cookies collect data to enhance your experience and personalize the content and advertising you see.
Visit our Privacy Policy to learn more. By continuing to use the site, you agree to this use of cookies and data.
  • In Slovakia
  • List of Countries
  • For 7 days
  • Water Temperature
  • Satellite Maps
  • Weather Map
  • Weather Widgets
  • user-avatar
    Login

    Hourly Weather Grzegorzowice

    Today, 19 December, Wednesday

    Time Temperature Precipitation Wind Pressure Humidity
    00:00 -2°C° 0 mm 2 mps 753 mmHg 89%
    01:00 -2°C° 0 mm 2 mps 752 mmHg 89%
    02:00 -2°C° 0 mm 2 mps 752 mmHg 89%
    03:00 -3°C° 0 mm 2 mps 752 mmHg 89%
    04:00 -3°C° 0 mm 2 mps 752 mmHg 89%
    05:00 -4°C° 0 mm 3 mps 752 mmHg 88%
    06:00 -4°C° 0 mm 3 mps 752 mmHg 88%
    07:00 -4°C° 0 mm 3 mps 751 mmHg 87%
    08:00 -2°C° 0 mm 3 mps 751 mmHg 84%
    09:00 -2°C° 0 mm 3 mps 751 mmHg 81%
    10:00 -1°C° 0 mm 3 mps 751 mmHg 78%
    11:00 -1°C° 0 mm 4 mps 750 mmHg 76%
    12:00 -1°C° 0 mm 4 mps 750 mmHg 74%
    13:00 0°C° 0 mm 4 mps 750 mmHg 72%
    14:00 -1°C° 0 mm 4 mps 750 mmHg 74%
    15:00 -2°C° 0 mm 4 mps 749 mmHg 76%
    16:00 -2°C° 0 mm 4 mps 749 mmHg 78%
    17:00 -2°C° 0 mm 4 mps 749 mmHg 79%
    18:00 -3°C° 0 mm 4 mps 749 mmHg 79%
    19:00 -3°C° 0 mm 4 mps 749 mmHg 79%
    20:00 -3°C° 0 mm 4 mps 749 mmHg 79%
    21:00 -2°C° 0 mm 3 mps 748 mmHg 78%
    22:00 -2°C° 0 mm 3 mps 748 mmHg 78%
    23:00 -2°C° 0 mm 3 mps 748 mmHg 77%

    Tomorrow, 20 December, Thursday

    Time Temperature Precipitation Wind Pressure Humidity
    00:00 -1°C° 0 mm 3 mps 748 mmHg 76%
    01:00 -1°C° 0 mm 3 mps 748 mmHg 75%
    02:00 -1°C° 0 mm 3 mps 748 mmHg 75%
    03:00 -1°C° 0 mm 3 mps 748 mmHg 74%
    04:00 -1°C° 0 mm 3 mps 747 mmHg 74%
    05:00 -2°C° 0 mm 3 mps 747 mmHg 75%
    06:00 -3°C° 0 mm 4 mps 747 mmHg 76%
    07:00 -3°C° 0 mm 4 mps 748 mmHg 77%
    08:00 -3°C° 0 mm 4 mps 748 mmHg 77%
    09:00 -4°C° 0 mm 5 mps 748 mmHg 76%
    10:00 -4°C° 0 mm 5 mps 748 mmHg 75%
    11:00 -2°C° 0 mm 5 mps 748 mmHg 75%
    12:00 -2°C° 0 mm 5 mps 748 mmHg 75%
    13:00 -2°C° 0 mm 5 mps 747 mmHg 75%
    14:00 -2°C° 0.1 mm 4 mps 747 mmHg 78%
    15:00 -2°C° 0.1 mm 4 mps 748 mmHg 81%
    16:00 -2°C° 0.1 mm 4 mps 748 mmHg 83%
    17:00 -2°C° 0.1 mm 4 mps 748 mmHg 84%
    18:00 -2°C° 0.1 mm 4 mps 748 mmHg 85%
    19:00 -2°C° 0.1 mm 4 mps 748 mmHg 86%
    20:00 -2°C° 0 mm 4 mps 748 mmHg 86%
    21:00 -2°C° 0 mm 4 mps 748 mmHg 86%
    22:00 -1°C° 0 mm 4 mps 748 mmHg 87%
    23:00 -1°C° 0 mm 4 mps 748 mmHg 87%

    Day after tomorrow, 21 December, Friday

    Time Temperature Precipitation Wind Pressure Humidity
    00:00 -1°C° 0 mm 4 mps 748 mmHg 88%
    01:00 -1°C° 0 mm 4 mps 748 mmHg 88%
    02:00 -1°C° 0 mm 4 mps 748 mmHg 88%
    03:00 -1°C° 0 mm 4 mps 748 mmHg 88%
    04:00 -1°C° 0 mm 5 mps 747 mmHg 88%
    05:00 -1°C° 0.1 mm 5 mps 747 mmHg 87%
    06:00 -1°C° 0.1 mm 5 mps 747 mmHg 87%
    07:00 -1°C° 0.1 mm 5 mps 747 mmHg 86%
    08:00 0°C° 0.2 mm 5 mps 746 mmHg 85%
    09:00 0°C° 0.2 mm 5 mps 746 mmHg 84%
    10:00 0°C° 0.2 mm 5 mps 746 mmHg 83%
    11:00 +1°C° 0.3 mm 5 mps 745 mmHg 82%
    12:00 +1°C° 0.3 mm 5 mps 744 mmHg 82%
    13:00 +1°C° 0.3 mm 5 mps 744 mmHg 82%
    14:00 +1°C° 0.6 mm 5 mps 743 mmHg 83%
    15:00 +1°C° 0.6 mm 6 mps 742 mmHg 83%
    16:00 +1°C° 0.6 mm 6 mps 742 mmHg 84%
    17:00 +1°C° 0.7 mm 6 mps 741 mmHg 84%
    18:00 0°C° 0.7 mm 7 mps 741 mmHg 84%
    19:00 +2°C° 0.7 mm 7 mps 740 mmHg 84%
    20:00 +2°C° 0.8 mm 7 mps 740 mmHg 85%
    21:00 +3°C° 0.8 mm 7 mps 739 mmHg 86%
    22:00 +3°C° 0.8 mm 7 mps 739 mmHg 87%
    23:00 +3°C° 0.3 mm 7 mps 739 mmHg 87%

    22 December, Saturday

    Time Temperature Precipitation Wind Pressure Humidity
    00:00 +4°C° 0.3 mm 7 mps 739 mmHg 88%
    01:00 +4°C° 0.3 mm 7 mps 739 mmHg 88%
    02:00 +4°C° 0.1 mm 6 mps 739 mmHg 89%
    03:00 +4°C° 0.1 mm 6 mps 739 mmHg 90%
    04:00 +5°C° 0.1 mm 5 mps 739 mmHg 90%
    05:00 +5°C° 0 mm 5 mps 739 mmHg 90%
    06:00 +5°C° 0 mm 4 mps 739 mmHg 90%
    07:00 +4°C° 0 mm 4 mps 739 mmHg 90%
    08:00 +5°C° 0.1 mm 5 mps 739 mmHg 90%
    09:00 +5°C° 0.1 mm 5 mps 739 mmHg 90%
    10:00 +5°C° 0.1 mm 5 mps 739 mmHg 89%
    11:00 +5°C° 0.5 mm 5 mps 739 mmHg 89%
    12:00 +5°C° 0.5 mm 6 mps 738 mmHg 88%
    13:00 +5°C° 0.5 mm 6 mps 738 mmHg 87%
    14:00 +5°C° 0.3 mm 6 mps 738 mmHg 86%
    15:00 +5°C° 0.3 mm 6 mps 738 mmHg 85%
    16:00 +5°C° 0.3 mm 7 mps 739 mmHg 84%
    17:00 +5°C° 0.1 mm 7 mps 739 mmHg 81%
    18:00 +5°C° 0.1 mm 7 mps 740 mmHg 78%
    19:00 +4°C° 0.1 mm 7 mps 740 mmHg 75%
    20:00 +4°C° 0 mm 7 mps 741 mmHg 76%
    21:00 +3°C° 0 mm 6 mps 741 mmHg 76%
    22:00 +3°C° 0 mm 6 mps 742 mmHg 76%
    23:00 +3°C° 0 mm 5 mps 742 mmHg 78%

    23 December, Sunday

    Time Temperature Precipitation Wind Pressure Humidity
    00:00 +3°C° 0 mm 5 mps 742 mmHg 80%
    01:00 +2°C° 0 mm 5 mps 742 mmHg 81%
    02:00 +2°C° 0 mm 5 mps 742 mmHg 83%
    03:00 +2°C° 0 mm 5 mps 742 mmHg 84%
    04:00 +3°C° 0 mm 4 mps 742 mmHg 86%
    05:00 +3°C° 0.1 mm 4 mps 742 mmHg 85%
    06:00 +2°C° 0.1 mm 5 mps 743 mmHg 85%
    07:00 +2°C° 0.1 mm 5 mps 743 mmHg 85%
    08:00 +2°C° 0 mm 5 mps 743 mmHg 83%
    09:00 +3°C° 0 mm 5 mps 744 mmHg 82%
    10:00 +3°C° 0 mm 5 mps 744 mmHg 80%
    11:00 +3°C° 0.1 mm 5 mps 744 mmHg 79%
    12:00 +3°C° 0.1 mm 5 mps 744 mmHg 78%
    13:00 +5°C° 0.1 mm 5 mps 744 mmHg 78%
    14:00 +3°C° 0.1 mm 5 mps 744 mmHg 78%
    15:00 +4°C° 0.1 mm 4 mps 745 mmHg 78%
    16:00 +4°C° 0.1 mm 4 mps 745 mmHg 79%
    17:00 +3°C° 0 mm 4 mps 745 mmHg 80%
    18:00 +3°C° 0 mm 4 mps 745 mmHg 81%
    19:00 +1°C° 0 mm 4 mps 745 mmHg 81%
    20:00 +1°C° 0.1 mm 4 mps 745 mmHg 82%
    21:00 +1°C° 0.1 mm 4 mps 745 mmHg 82%
    22:00 +1°C° 0.1 mm 4 mps 745 mmHg 82%
    23:00 +1°C° 0.3 mm 4 mps 745 mmHg 82%

    24 December, Monday

    Time Temperature Precipitation Wind Pressure Humidity
    00:00 +2°C° 0.3 mm 5 mps 745 mmHg 82%
    01:00 +2°C° 0.3 mm 5 mps 745 mmHg 82%
    02:00 +2°C° 0.3 mm 6 mps 745 mmHg 82%
    03:00 +2°C° 0.3 mm 6 mps 745 mmHg 82%
    04:00 +2°C° 0.3 mm 7 mps 746 mmHg 82%
    05:00 +1°C° 0.2 mm 6 mps 746 mmHg 84%
    06:00 +1°C° 0.2 mm 5 mps 747 mmHg 86%
    07:00 0°C° 0.2 mm 4 mps 747 mmHg 88%
    08:00 +2°C° 0.2 mm 3 mps 748 mmHg 88%
    09:00 +3°C° 0.2 mm 2 mps 749 mmHg 88%
    10:00 +3°C° 0.2 mm 2 mps 750 mmHg 88%
    11:00 +3°C° 0.2 mm 2 mps 750 mmHg 87%
    12:00 +3°C° 0.2 mm 2 mps 750 mmHg 87%
    13:00 +3°C° 0.2 mm 3 mps 750 mmHg 87%
    14:00 +3°C° 0.2 mm 3 mps 750 mmHg 86%
    15:00 +3°C° 0.2 mm 3 mps 750 mmHg 86%
    16:00 +3°C° 0.2 mm 4 mps 750 mmHg 86%
    17:00 +2°C° 0.1 mm 3 mps 750 mmHg 87%
    18:00 +2°C° 0.1 mm 3 mps 750 mmHg 87%
    19:00 +2°C° 0.1 mm 3 mps 750 mmHg 88%
    20:00 +2°C° 0.1 mm 3 mps 750 mmHg 88%
    21:00 +1°C° 0.1 mm 4 mps 750 mmHg 88%
    22:00 +1°C° 0.1 mm 4 mps 750 mmHg 88%
    23:00 +1°C° 0.1 mm 4 mps 750 mmHg 87%
    Show more